DW4362 Weather Reports


time (UTC)temp
C
wind
direction
speed
KPH
gust
KPH
rain 1hr
cm
rain 24hr
cm
rain mn
cm
humidity
%
barometer
mb
20260831180213 32 238 3.2 12.9 0.00 0.08 0.03 66 1016.5
20260831173212 32 358 3.2 3.2 0.00 0.08 0.03 67 1016.9
20260831170212 33 136 4.8 12.9 0.00 0.08 0.03 64 1017.1
20260831163212 31 11 0.0 0.0 0.00 0.08 0.03 73 1017.3
20260831160212 31 315 0.0 0.0 0.00 0.08 0.03 74 1017.5
20260831150212 30 136 4.8 9.7 0.00 0.08 0.03 77 1017.5
20260831143212 29 176 8.0 9.7 0.00 0.08 0.03 82 1017.3
20260831140212 27 153 0.0 8.0 0.00 0.08 0.03 87 1017.4
20260831123211 23 316 3.2 4.8 0.03 0.08 0.03 95 1017.0
20260831120211 22 328 3.2 3.2 0.03 0.08 0.03 95 1016.6
20260831113211 22 328 0.0 0.0 0.00 0.05 0.00 95 1016.1
20260831103210 22 3 0.0 0.0 0.00 0.05 0.00 95 1015.6
20260831093210 22 255 0.0 0.0 0.00 0.05 0.00 95 1015.2
20260831083209 23 255 0.0 0.0 0.00 0.05 0.00 95 1015.3
20260831080209 23 255 0.0 0.0 0.00 0.05 0.00 95 1015.4
20260831073210 23 256 0.0 0.0 0.00 0.05 0.00 95 1015.4
20260831063209 23 256 0.0 0.0 0.00 0.05 0.00 95 1015.8
20260831060208 23 256 0.0 0.0 0.00 0.05 0.00 95 1015.8
20260831050208 23 256 0.0 0.0 0.00 0.05 0.00 95 1016.0
20260831043208 23 255 0.0 0.0 0.00 0.05 0.05 95 1016.1
20260831040208 24 256 0.0 0.0 0.00 0.05 0.05 95 1016.3
20260831030208 24 256 0.0 0.0 0.00 0.05 0.05 95 1016.3
20260831010207 25 256 0.0 0.0 0.00 0.05 0.05 91 1015.4
20260830233207 27 256 0.0 0.0 0.00 0.05 0.05 87 1015.1
20260830230207 27 257 0.0 0.0 0.00 0.05 0.05 86 1015.1
20260830223207 27 75 0.0 0.0 0.00 0.05 0.05 85 1015.1
20260830213207 27 23 0.0 0.0 0.00 0.05 0.05 82 1015.2
20260830210207 28 317 8.0 8.0 0.00 0.05 0.05 75 1015.3
20260830203207 32 278 0.0 4.8 0.00 0.05 0.05 68 1015.5
20260830200207 32 195 3.2 4.8 0.00 0.05 0.05 69 1015.6
20260830193207 31 212 0.0 3.2 0.00 0.05 0.05 71 1015.8
20260830190206 29 200 0.0 0.0 0.05 0.05 0.05 85 1016.3